#datetime,building,power
2022-06-11T00:00:00,sdl,13.76
2022-06-11T00:01:00,sdl,13.86
2022-06-11T00:02:00,sdl,13.73
2022-06-11T00:03:00,sdl,13.66
2022-06-11T00:04:00,sdl,13.59
2022-06-11T00:05:00,sdl,14.02
2022-06-11T00:06:00,sdl,14.45
2022-06-11T00:07:00,sdl,14.39
2022-06-11T00:08:00,sdl,13.97
2022-06-11T00:09:00,sdl,13.68
2022-06-11T00:10:00,sdl,11.35
2022-06-11T00:11:00,sdl,11.32
2022-06-11T00:12:00,sdl,11.36
2022-06-11T00:13:00,sdl,11.34
2022-06-11T00:14:00,sdl,11.37
2022-06-11T00:15:00,sdl,12.54
2022-06-11T00:16:00,sdl,11.30
2022-06-11T00:17:00,sdl,11.32
2022-06-11T00:18:00,sdl,11.33
2022-06-11T00:19:00,sdl,11.31
2022-06-11T00:20:00,sdl,11.34
2022-06-11T00:21:00,sdl,11.27
2022-06-11T00:22:00,sdl,11.30
2022-06-11T00:23:00,sdl,10.85
2022-06-11T00:24:00,sdl,10.84
2022-06-11T00:25:00,sdl,10.87
2022-06-11T00:26:00,sdl,10.93
2022-06-11T00:27:00,sdl,10.94
2022-06-11T00:28:00,sdl,10.87
2022-06-11T00:29:00,sdl,11.30
2022-06-11T00:30:00,sdl,11.29
2022-06-11T00:31:00,sdl,11.32
2022-06-11T00:32:00,sdl,11.34
2022-06-11T00:33:00,sdl,11.51
2022-06-11T00:34:00,sdl,11.72
2022-06-11T00:35:00,sdl,11.39
2022-06-11T00:36:00,sdl,11.77
2022-06-11T00:37:00,sdl,11.77
2022-06-11T00:38:00,sdl,11.30
2022-06-11T00:39:00,sdl,11.34
2022-06-11T00:40:00,sdl,11.38
2022-06-11T00:41:00,sdl,11.18
2022-06-11T00:42:00,sdl,10.73
2022-06-11T00:43:00,sdl,10.90
2022-06-11T00:44:00,sdl,11.50
2022-06-11T00:45:00,sdl,11.42
2022-06-11T00:46:00,sdl,13.72
2022-06-11T00:47:00,sdl,13.75
2022-06-11T00:48:00,sdl,14.35
2022-06-11T00:49:00,sdl,14.34
2022-06-11T00:50:00,sdl,15.47
2022-06-11T00:51:00,sdl,14.37
2022-06-11T00:52:00,sdl,15.35
2022-06-11T00:53:00,sdl,14.37
2022-06-11T00:54:00,sdl,14.35
2022-06-11T00:55:00,sdl,14.34
2022-06-11T00:56:00,sdl,14.41
2022-06-11T00:57:00,sdl,14.41
2022-06-11T00:58:00,sdl,14.45
2022-06-11T00:59:00,sdl,12.06
2022-06-11T01:00:00,sdl,11.78
2022-06-11T01:01:00,sdl,11.82
2022-06-11T01:02:00,sdl,11.81
2022-06-11T01:03:00,sdl,11.83
2022-06-11T01:04:00,sdl,11.76
2022-06-11T01:05:00,sdl,11.78
2022-06-11T01:06:00,sdl,12.08
2022-06-11T01:07:00,sdl,12.52
2022-06-11T01:08:00,sdl,12.46
2022-06-11T01:09:00,sdl,12.07
2022-06-11T01:10:00,sdl,12.05
2022-06-11T01:11:00,sdl,12.19
2022-06-11T01:12:00,sdl,12.21
2022-06-11T01:13:00,sdl,14.72
2022-06-11T01:14:00,sdl,14.48
2022-06-11T01:15:00,sdl,14.30
2022-06-11T01:16:00,sdl,14.24
2022-06-11T01:17:00,sdl,14.18
2022-06-11T01:18:00,sdl,14.11
2022-06-11T01:19:00,sdl,13.70
2022-06-11T01:20:00,sdl,13.68
2022-06-11T01:21:00,sdl,13.68
2022-06-11T01:22:00,sdl,13.61
2022-06-11T01:23:00,sdl,13.64
2022-06-11T01:24:00,sdl,14.74
2022-06-11T01:25:00,sdl,13.74
2022-06-11T01:26:00,sdl,11.47
2022-06-11T01:27:00,sdl,11.99
2022-06-11T01:28:00,sdl,11.98
2022-06-11T01:29:00,sdl,11.65
2022-06-11T01:30:00,sdl,11.63
2022-06-11T01:31:00,sdl,11.78
2022-06-11T01:32:00,sdl,11.52
2022-06-11T01:33:00,sdl,11.67
2022-06-11T01:34:00,sdl,11.68
2022-06-11T01:35:00,sdl,11.50
2022-06-11T01:36:00,sdl,10.97
2022-06-11T01:37:00,sdl,11.12
2022-06-11T01:38:00,sdl,11.07
2022-06-11T01:39:00,sdl,11.27
2022-06-11T01:40:00,sdl,11.09
2022-06-11T01:41:00,sdl,11.06
2022-06-11T01:42:00,sdl,11.04
2022-06-11T01:43:00,sdl,11.35
2022-06-11T01:44:00,sdl,11.74
2022-06-11T01:45:00,sdl,11.27
2022-06-11T01:46:00,sdl,11.26
2022-06-11T01:47:00,sdl,11.18
2022-06-11T01:48:00,sdl,11.29
2022-06-11T01:49:00,sdl,11.28
2022-06-11T01:50:00,sdl,11.34
2022-06-11T01:51:00,sdl,11.36
2022-06-11T01:52:00,sdl,11.33
2022-06-11T01:53:00,sdl,10.88
2022-06-11T01:54:00,sdl,10.86
2022-06-11T01:55:00,sdl,10.88
2022-06-11T01:56:00,sdl,10.79
2022-06-11T01:57:00,sdl,10.83
2022-06-11T01:58:00,sdl,10.85
2022-06-11T01:59:00,sdl,13.68
2022-06-11T02:00:00,sdl,13.14
2022-06-11T02:01:00,sdl,13.12
2022-06-11T02:02:00,sdl,13.56
2022-06-11T02:03:00,sdl,13.64
2022-06-11T02:04:00,sdl,14.38
2022-06-11T02:05:00,sdl,14.14
2022-06-11T02:06:00,sdl,14.18
2022-06-11T02:07:00,sdl,14.26
2022-06-11T02:08:00,sdl,14.25
2022-06-11T02:09:00,sdl,14.67
2022-06-11T02:10:00,sdl,14.13
2022-06-11T02:11:00,sdl,13.63
2022-06-11T02:12:00,sdl,13.63
2022-06-11T02:13:00,sdl,14.64
2022-06-11T02:14:00,sdl,13.97
2022-06-11T02:15:00,sdl,13.95
2022-06-11T02:16:00,sdl,11.32
2022-06-11T02:17:00,sdl,11.13
2022-06-11T02:18:00,sdl,11.01
2022-06-11T02:19:00,sdl,11.00
2022-06-11T02:20:00,sdl,11.50
2022-06-11T02:21:00,sdl,11.38
2022-06-11T02:22:00,sdl,11.34
2022-06-11T02:23:00,sdl,11.48
2022-06-11T02:24:00,sdl,11.52
2022-06-11T02:25:00,sdl,11.53
2022-06-11T02:26:00,sdl,11.53
2022-06-11T02:27:00,sdl,11.49
2022-06-11T02:28:00,sdl,11.10
2022-06-11T02:29:00,sdl,11.10
2022-06-11T02:30:00,sdl,12.14
2022-06-11T02:31:00,sdl,11.12
2022-06-11T02:32:00,sdl,11.47
2022-06-11T02:33:00,sdl,11.48
2022-06-11T02:34:00,sdl,11.39
2022-06-11T02:35:00,sdl,11.40
2022-06-11T02:36:00,sdl,11.46
2022-06-11T02:37:00,sdl,11.85
2022-06-11T02:38:00,sdl,11.89
2022-06-11T02:39:00,sdl,12.00
2022-06-11T02:40:00,sdl,11.94
2022-06-11T02:41:00,sdl,12.03
2022-06-11T02:42:00,sdl,11.97
2022-06-11T02:43:00,sdl,12.05
2022-06-11T02:44:00,sdl,12.05
2022-06-11T02:45:00,sdl,13.73
2022-06-11T02:46:00,sdl,11.90
2022-06-11T02:47:00,sdl,11.54
2022-06-11T02:48:00,sdl,11.45
2022-06-11T02:49:00,sdl,11.35
2022-06-11T02:50:00,sdl,11.23
2022-06-11T02:51:00,sdl,11.30
2022-06-11T02:52:00,sdl,11.29
2022-06-11T02:53:00,sdl,11.85
2022-06-11T02:54:00,sdl,11.85
2022-06-11T02:55:00,sdl,11.83
2022-06-11T02:56:00,sdl,11.84
2022-06-11T02:57:00,sdl,11.77
2022-06-11T02:58:00,sdl,14.06
2022-06-11T02:59:00,sdl,13.96
2022-06-11T03:00:00,sdl,13.95
2022-06-11T03:01:00,sdl,15.01
2022-06-11T03:02:00,sdl,13.62
2022-06-11T03:03:00,sdl,13.58
2022-06-11T03:04:00,sdl,13.54
2022-06-11T03:05:00,sdl,13.58
2022-06-11T03:06:00,sdl,13.64
2022-06-11T03:07:00,sdl,13.66
2022-06-11T03:08:00,sdl,13.63
2022-06-11T03:09:00,sdl,13.83
2022-06-11T03:10:00,sdl,14.22
2022-06-11T03:11:00,sdl,14.16
2022-06-11T03:12:00,sdl,11.95
2022-06-11T03:13:00,sdl,11.94
2022-06-11T03:14:00,sdl,11.85
2022-06-11T03:15:00,sdl,13.29
2022-06-11T03:16:00,sdl,12.22
2022-06-11T03:17:00,sdl,11.82
2022-06-11T03:18:00,sdl,11.43
2022-06-11T03:19:00,sdl,11.45
2022-06-11T03:20:00,sdl,11.55
2022-06-11T03:21:00,sdl,11.12
2022-06-11T03:22:00,sdl,11.10
2022-06-11T03:23:00,sdl,11.04
2022-06-11T03:24:00,sdl,10.99
2022-06-11T03:25:00,sdl,10.97
2022-06-11T03:26:00,sdl,13.67
2022-06-11T03:27:00,sdl,14.18
2022-06-11T03:28:00,sdl,13.69
2022-06-11T03:29:00,sdl,13.61
2022-06-11T03:30:00,sdl,13.65
2022-06-11T03:31:00,sdl,14.65
2022-06-11T03:32:00,sdl,13.62
2022-06-11T03:33:00,sdl,13.21
2022-06-11T03:34:00,sdl,13.19
2022-06-11T03:35:00,sdl,13.18
2022-06-11T03:36:00,sdl,13.22
2022-06-11T03:37:00,sdl,13.15
2022-06-11T03:38:00,sdl,10.84
2022-06-11T03:39:00,sdl,10.89
2022-06-11T03:40:00,sdl,10.89
2022-06-11T03:41:00,sdl,10.88
2022-06-11T03:42:00,sdl,11.35
2022-06-11T03:43:00,sdl,11.42
2022-06-11T03:44:00,sdl,11.82
2022-06-11T03:45:00,sdl,11.82
2022-06-11T03:46:00,sdl,12.50
2022-06-11T03:47:00,sdl,11.50
2022-06-11T03:48:00,sdl,11.51
2022-06-11T03:49:00,sdl,10.97
2022-06-11T03:50:00,sdl,10.99
2022-06-11T03:51:00,sdl,10.96
2022-06-11T03:52:00,sdl,10.92
2022-06-11T03:53:00,sdl,12.36
2022-06-11T03:54:00,sdl,11.26
2022-06-11T03:55:00,sdl,11.33
2022-06-11T03:56:00,sdl,11.38
2022-06-11T03:57:00,sdl,11.42
2022-06-11T03:58:00,sdl,11.93
2022-06-11T03:59:00,sdl,11.90
2022-06-11T04:00:00,sdl,11.86
2022-06-11T04:01:00,sdl,12.82
2022-06-11T04:02:00,sdl,11.88
2022-06-11T04:03:00,sdl,12.07
2022-06-11T04:04:00,sdl,11.97
2022-06-11T04:05:00,sdl,11.51
2022-06-11T04:06:00,sdl,11.47
2022-06-11T04:07:00,sdl,11.44
2022-06-11T04:08:00,sdl,11.58
2022-06-11T04:09:00,sdl,11.71
2022-06-11T04:10:00,sdl,11.72
2022-06-11T04:11:00,sdl,12.89
2022-06-11T04:12:00,sdl,11.72
2022-06-11T04:13:00,sdl,13.88
2022-06-11T04:14:00,sdl,13.75
2022-06-11T04:15:00,sdl,14.22
2022-06-11T04:16:00,sdl,14.32
2022-06-11T04:17:00,sdl,14.68
2022-06-11T04:18:00,sdl,14.66
2022-06-11T04:19:00,sdl,14.34
2022-06-11T04:20:00,sdl,14.48
2022-06-11T04:21:00,sdl,14.43
2022-06-11T04:22:00,sdl,13.82
2022-06-11T04:23:00,sdl,13.84
2022-06-11T04:24:00,sdl,13.81
2022-06-11T04:25:00,sdl,13.78
2022-06-11T04:26:00,sdl,13.73
2022-06-11T04:27:00,sdl,13.62
2022-06-11T04:28:00,sdl,13.61
2022-06-11T04:29:00,sdl,13.57
2022-06-11T04:30:00,sdl,11.37
2022-06-11T04:31:00,sdl,11.84
2022-06-11T04:32:00,sdl,12.78
2022-06-11T04:33:00,sdl,11.82
2022-06-11T04:34:00,sdl,11.94
2022-06-11T04:35:00,sdl,11.91
2022-06-11T04:36:00,sdl,11.88
2022-06-11T04:37:00,sdl,11.96
2022-06-11T04:38:00,sdl,11.03
2022-06-11T04:39:00,sdl,11.02
2022-06-11T04:40:00,sdl,10.99
2022-06-11T04:41:00,sdl,12.11
2022-06-11T04:42:00,sdl,10.94
2022-06-11T04:43:00,sdl,11.12
2022-06-11T04:44:00,sdl,11.15
2022-06-11T04:45:00,sdl,11.14
2022-06-11T04:46:00,sdl,11.42
2022-06-11T04:47:00,sdl,12.54
2022-06-11T04:48:00,sdl,11.98
2022-06-11T04:49:00,sdl,11.43
2022-06-11T04:50:00,sdl,11.51
2022-06-11T04:51:00,sdl,11.43
2022-06-11T04:52:00,sdl,11.49
2022-06-11T04:53:00,sdl,11.53
2022-06-11T04:54:00,sdl,11.92
2022-06-11T04:55:00,sdl,11.52
2022-06-11T04:56:00,sdl,10.94
2022-06-11T04:57:00,sdl,10.93
2022-06-11T04:58:00,sdl,11.06
2022-06-11T04:59:00,sdl,10.90
2022-06-11T05:00:00,sdl,10.95
2022-06-11T05:01:00,sdl,10.82
2022-06-11T05:02:00,sdl,10.86
2022-06-11T05:03:00,sdl,11.88
2022-06-11T05:04:00,sdl,10.76
2022-06-11T05:05:00,sdl,10.78
2022-06-11T05:06:00,sdl,11.18
2022-06-11T05:07:00,sdl,11.13
2022-06-11T05:08:00,sdl,11.16
2022-06-11T05:09:00,sdl,11.60
2022-06-11T05:10:00,sdl,11.23
2022-06-11T05:11:00,sdl,11.32
2022-06-11T05:12:00,sdl,13.16
2022-06-11T05:13:00,sdl,13.55
2022-06-11T05:14:00,sdl,13.53
2022-06-11T05:15:00,sdl,13.53
2022-06-11T05:16:00,sdl,13.85
2022-06-11T05:17:00,sdl,13.78
2022-06-11T05:18:00,sdl,13.33
2022-06-11T05:19:00,sdl,13.95
2022-06-11T05:20:00,sdl,13.40
2022-06-11T05:21:00,sdl,14.01
2022-06-11T05:22:00,sdl,13.34
2022-06-11T05:23:00,sdl,14.50
2022-06-11T05:24:00,sdl,15.02
2022-06-11T05:25:00,sdl,14.20
2022-06-11T05:26:00,sdl,11.86
2022-06-11T05:27:00,sdl,11.86
2022-06-11T05:28:00,sdl,11.90
2022-06-11T05:29:00,sdl,11.76
2022-06-11T05:30:00,sdl,11.44
2022-06-11T05:31:00,sdl,11.41
2022-06-11T05:32:00,sdl,11.40
2022-06-11T05:33:00,sdl,11.40
2022-06-11T05:34:00,sdl,12.26
2022-06-11T05:35:00,sdl,11.30
2022-06-11T05:36:00,sdl,11.25
2022-06-11T05:37:00,sdl,11.26
2022-06-11T05:38:00,sdl,11.28
2022-06-11T05:39:00,sdl,11.30
2022-06-11T05:40:00,sdl,13.52
2022-06-11T05:41:00,sdl,13.90
2022-06-11T05:42:00,sdl,13.94
2022-06-11T05:43:00,sdl,14.01
2022-06-11T05:44:00,sdl,14.01
2022-06-11T05:45:00,sdl,14.42
2022-06-11T05:46:00,sdl,14.38
2022-06-11T05:47:00,sdl,13.61
2022-06-11T05:48:00,sdl,13.75
2022-06-11T05:49:00,sdl,14.56
2022-06-11T05:50:00,sdl,13.53
2022-06-11T05:51:00,sdl,14.49
2022-06-11T05:52:00,sdl,11.26
2022-06-11T05:53:00,sdl,11.26
2022-06-11T05:54:00,sdl,11.18
2022-06-11T05:55:00,sdl,11.12
2022-06-11T05:56:00,sdl,11.11
2022-06-11T05:57:00,sdl,10.68
2022-06-11T05:58:00,sdl,11.10
2022-06-11T05:59:00,sdl,11.18
2022-06-11T06:00:00,sdl,11.43
2022-06-11T06:01:00,sdl,11.74
2022-06-11T06:02:00,sdl,11.58
2022-06-11T06:03:00,sdl,11.56
2022-06-11T06:04:00,sdl,11.65
2022-06-11T06:05:00,sdl,12.11
2022-06-11T06:06:00,sdl,11.09
2022-06-11T06:07:00,sdl,11.03
2022-06-11T06:08:00,sdl,11.01
2022-06-11T06:09:00,sdl,11.07
2022-06-11T06:10:00,sdl,11.03
2022-06-11T06:11:00,sdl,10.99
2022-06-11T06:12:00,sdl,11.00
2022-06-11T06:13:00,sdl,10.99
2022-06-11T06:14:00,sdl,11.07
2022-06-11T06:15:00,sdl,11.36
2022-06-11T06:16:00,sdl,12.60
2022-06-11T06:17:00,sdl,12.93
2022-06-11T06:18:00,sdl,14.68
2022-06-11T06:19:00,sdl,20.15
2022-06-11T06:20:00,sdl,20.64
2022-06-11T06:21:00,sdl,21.47
2022-06-11T06:22:00,sdl,22.06
2022-06-11T06:23:00,sdl,22.47
2022-06-11T06:24:00,sdl,22.60
2022-06-11T06:25:00,sdl,22.53
2022-06-11T06:26:00,sdl,25.01
2022-06-11T06:27:00,sdl,24.77
2022-06-11T06:28:00,sdl,24.67
2022-06-11T06:29:00,sdl,24.62
2022-06-11T06:30:00,sdl,24.66
2022-06-11T06:31:00,sdl,25.13
2022-06-11T06:32:00,sdl,25.71
2022-06-11T06:33:00,sdl,25.73
2022-06-11T06:34:00,sdl,25.25
2022-06-11T06:35:00,sdl,25.56
2022-06-11T06:36:00,sdl,27.94
2022-06-11T06:37:00,sdl,26.75
2022-06-11T06:38:00,sdl,26.78
2022-06-11T06:39:00,sdl,26.17
2022-06-11T06:40:00,sdl,26.31
2022-06-11T06:41:00,sdl,26.29
2022-06-11T06:42:00,sdl,24.02
2022-06-11T06:43:00,sdl,24.59
2022-06-11T06:44:00,sdl,23.22
2022-06-11T06:45:00,sdl,23.06
2022-06-11T06:46:00,sdl,23.05
2022-06-11T06:47:00,sdl,23.51
2022-06-11T06:48:00,sdl,24.07
2022-06-11T06:49:00,sdl,23.51
2022-06-11T06:50:00,sdl,22.50
2022-06-11T06:51:00,sdl,23.58
2022-06-11T06:52:00,sdl,22.39
2022-06-11T06:53:00,sdl,22.39
2022-06-11T06:54:00,sdl,22.20
2022-06-11T06:55:00,sdl,22.77
2022-06-11T06:56:00,sdl,21.68
2022-06-11T06:57:00,sdl,21.76
2022-06-11T06:58:00,sdl,21.70
2022-06-11T06:59:00,sdl,21.66
2022-06-11T07:00:00,sdl,21.82
2022-06-11T07:01:00,sdl,21.78
2022-06-11T07:02:00,sdl,21.82
2022-06-11T07:03:00,sdl,21.86
2022-06-11T07:04:00,sdl,21.83
2022-06-11T07:05:00,sdl,23.09
2022-06-11T07:06:00,sdl,22.56
2022-06-11T07:07:00,sdl,22.48
2022-06-11T07:08:00,sdl,22.46
2022-06-11T07:09:00,sdl,25.21
2022-06-11T07:10:00,sdl,24.89
2022-06-11T07:11:00,sdl,24.95
2022-06-11T07:12:00,sdl,24.92
2022-06-11T07:13:00,sdl,24.44
2022-06-11T07:14:00,sdl,23.97
2022-06-11T07:15:00,sdl,23.96
2022-06-11T07:16:00,sdl,25.33
2022-06-11T07:17:00,sdl,25.34
2022-06-11T07:18:00,sdl,25.39
2022-06-11T07:19:00,sdl,25.68
2022-06-11T07:20:00,sdl,25.74
2022-06-11T07:21:00,sdl,25.84
2022-06-11T07:22:00,sdl,26.87
2022-06-11T07:23:00,sdl,25.98
2022-06-11T07:24:00,sdl,26.61
2022-06-11T07:25:00,sdl,23.99
2022-06-11T07:26:00,sdl,24.00
2022-06-11T07:27:00,sdl,24.22
2022-06-11T07:28:00,sdl,24.69
2022-06-11T07:29:00,sdl,24.18
2022-06-11T07:30:00,sdl,22.93
2022-06-11T07:31:00,sdl,22.58
2022-06-11T07:32:00,sdl,22.89
2022-06-11T07:33:00,sdl,22.87
2022-06-11T07:34:00,sdl,22.75
2022-06-11T07:35:00,sdl,22.55
2022-06-11T07:36:00,sdl,22.55
2022-06-11T07:37:00,sdl,23.32
2022-06-11T07:38:00,sdl,23.49
2022-06-11T07:39:00,sdl,23.21
2022-06-11T07:40:00,sdl,23.56
2022-06-11T07:41:00,sdl,23.40
2022-06-11T07:42:00,sdl,22.87
2022-06-11T07:43:00,sdl,22.98
2022-06-11T07:44:00,sdl,23.40
2022-06-11T07:45:00,sdl,23.63
2022-06-11T07:46:00,sdl,23.02
2022-06-11T07:47:00,sdl,23.01
2022-06-11T07:48:00,sdl,22.66
2022-06-11T07:49:00,sdl,23.15
2022-06-11T07:50:00,sdl,22.60
2022-06-11T07:51:00,sdl,22.21
2022-06-11T07:52:00,sdl,22.21
2022-06-11T07:53:00,sdl,23.40
2022-06-11T07:54:00,sdl,23.83
2022-06-11T07:55:00,sdl,23.82
2022-06-11T07:56:00,sdl,23.80
2022-06-11T07:57:00,sdl,23.78
2022-06-11T07:58:00,sdl,23.86
2022-06-11T07:59:00,sdl,23.77
2022-06-11T08:00:00,sdl,25.93
2022-06-11T08:01:00,sdl,25.96
2022-06-11T08:02:00,sdl,25.90
2022-06-11T08:03:00,sdl,25.50
2022-06-11T08:04:00,sdl,26.55
2022-06-11T08:05:00,sdl,25.52
2022-06-11T08:06:00,sdl,25.31
2022-06-11T08:07:00,sdl,25.14
2022-06-11T08:08:00,sdl,25.16
2022-06-11T08:09:00,sdl,25.13
2022-06-11T08:10:00,sdl,25.07
2022-06-11T08:11:00,sdl,25.21
2022-06-11T08:12:00,sdl,25.11
2022-06-11T08:13:00,sdl,25.58
2022-06-11T08:14:00,sdl,25.71
2022-06-11T08:15:00,sdl,25.49
2022-06-11T08:16:00,sdl,25.41
2022-06-11T08:17:00,sdl,25.53
2022-06-11T08:18:00,sdl,23.44
2022-06-11T08:19:00,sdl,23.38
2022-06-11T08:20:00,sdl,23.77
2022-06-11T08:21:00,sdl,23.61
2022-06-11T08:22:00,sdl,23.72
2022-06-11T08:23:00,sdl,23.24
2022-06-11T08:24:00,sdl,23.14
2022-06-11T08:25:00,sdl,23.14
2022-06-11T08:26:00,sdl,23.11
2022-06-11T08:27:00,sdl,23.14
2022-06-11T08:28:00,sdl,23.08
2022-06-11T08:29:00,sdl,23.12
2022-06-11T08:30:00,sdl,23.22
2022-06-11T08:31:00,sdl,23.23
2022-06-11T08:32:00,sdl,23.21
2022-06-11T08:33:00,sdl,23.37
2022-06-11T08:34:00,sdl,23.35
2022-06-11T08:35:00,sdl,23.48
2022-06-11T08:36:00,sdl,23.44
2022-06-11T08:37:00,sdl,23.89
2022-06-11T08:38:00,sdl,23.82
2022-06-11T08:39:00,sdl,26.10
2022-06-11T08:40:00,sdl,26.02
2022-06-11T08:41:00,sdl,26.00
2022-06-11T08:42:00,sdl,25.98
2022-06-11T08:43:00,sdl,26.09
2022-06-11T08:44:00,sdl,26.21
2022-06-11T08:45:00,sdl,26.22
2022-06-11T08:46:00,sdl,26.13
2022-06-11T08:47:00,sdl,26.14
2022-06-11T08:48:00,sdl,26.18
2022-06-11T08:49:00,sdl,25.16
2022-06-11T08:50:00,sdl,24.26
2022-06-11T08:51:00,sdl,23.90
2022-06-11T08:52:00,sdl,23.74
2022-06-11T08:53:00,sdl,23.72
2022-06-11T08:54:00,sdl,24.70
2022-06-11T08:55:00,sdl,23.76
2022-06-11T08:56:00,sdl,23.83
2022-06-11T08:57:00,sdl,23.82
2022-06-11T08:58:00,sdl,23.90
2022-06-11T08:59:00,sdl,23.79
2022-06-11T09:00:00,sdl,23.76
2022-06-11T09:01:00,sdl,23.84
2022-06-11T09:02:00,sdl,23.82
2022-06-11T09:03:00,sdl,23.84
2022-06-11T09:04:00,sdl,23.70
2022-06-11T09:05:00,sdl,25.97
2022-06-11T09:06:00,sdl,25.92
2022-06-11T09:07:00,sdl,25.79
2022-06-11T09:08:00,sdl,25.90
2022-06-11T09:09:00,sdl,25.99
2022-06-11T09:10:00,sdl,26.94
2022-06-11T09:11:00,sdl,25.99
2022-06-11T09:12:00,sdl,25.94
2022-06-11T09:13:00,sdl,25.96
2022-06-11T09:14:00,sdl,25.71
2022-06-11T09:15:00,sdl,25.82
2022-06-11T09:16:00,sdl,25.85
2022-06-11T09:17:00,sdl,26.60
2022-06-11T09:18:00,sdl,26.31
2022-06-11T09:19:00,sdl,25.91
2022-06-11T09:20:00,sdl,25.49
2022-06-11T09:21:00,sdl,25.54
2022-06-11T09:22:00,sdl,23.33
2022-06-11T09:23:00,sdl,23.31
2022-06-11T09:24:00,sdl,23.31
2022-06-11T09:25:00,sdl,23.25
2022-06-11T09:26:00,sdl,23.20
2022-06-11T09:27:00,sdl,23.09
2022-06-11T09:28:00,sdl,23.08
2022-06-11T09:29:00,sdl,23.13
2022-06-11T09:30:00,sdl,23.14
2022-06-11T09:31:00,sdl,23.16
2022-06-11T09:32:00,sdl,23.12
2022-06-11T09:33:00,sdl,23.33
2022-06-11T09:34:00,sdl,23.24
2022-06-11T09:35:00,sdl,23.20
2022-06-11T09:36:00,sdl,23.20
2022-06-11T09:37:00,sdl,23.17
2022-06-11T09:38:00,sdl,23.35
2022-06-11T09:39:00,sdl,23.03
2022-06-11T09:40:00,sdl,23.61
2022-06-11T09:41:00,sdl,23.06
2022-06-11T09:42:00,sdl,22.99
2022-06-11T09:43:00,sdl,23.74
2022-06-11T09:44:00,sdl,23.03
2022-06-11T09:45:00,sdl,24.18
2022-06-11T09:46:00,sdl,23.10
2022-06-11T09:47:00,sdl,23.54
2022-06-11T09:48:00,sdl,23.69
2022-06-11T09:49:00,sdl,23.33
2022-06-11T09:50:00,sdl,23.39
2022-06-11T09:51:00,sdl,23.28
2022-06-11T09:52:00,sdl,23.30
2022-06-11T09:53:00,sdl,23.30
2022-06-11T09:54:00,sdl,23.78
2022-06-11T09:55:00,sdl,25.78
2022-06-11T09:56:00,sdl,25.82
2022-06-11T09:57:00,sdl,25.09
2022-06-11T09:58:00,sdl,27.21
2022-06-11T09:59:00,sdl,24.94
2022-06-11T10:00:00,sdl,24.90
2022-06-11T10:01:00,sdl,25.88
2022-06-11T10:02:00,sdl,24.93
2022-06-11T10:03:00,sdl,24.90
2022-06-11T10:04:00,sdl,25.46
2022-06-11T10:05:00,sdl,25.98
2022-06-11T10:06:00,sdl,26.97
2022-06-11T10:07:00,sdl,26.01
2022-06-11T10:08:00,sdl,26.79
2022-06-11T10:09:00,sdl,26.25
2022-06-11T10:10:00,sdl,26.22
2022-06-11T10:11:00,sdl,34.50
2022-06-11T10:12:00,sdl,32.35
2022-06-11T10:13:00,sdl,32.47
2022-06-11T10:14:00,sdl,32.56
2022-06-11T10:15:00,sdl,33.16
2022-06-11T10:16:00,sdl,33.25
2022-06-11T10:17:00,sdl,32.95
2022-06-11T10:18:00,sdl,41.81
2022-06-11T10:19:00,sdl,43.00
2022-06-11T10:20:00,sdl,42.97
2022-06-11T10:21:00,sdl,43.42
2022-06-11T10:22:00,sdl,44.21
2022-06-11T10:23:00,sdl,44.87
2022-06-11T10:24:00,sdl,45.90
2022-06-11T10:25:00,sdl,46.41
2022-06-11T10:26:00,sdl,47.59
2022-06-11T10:27:00,sdl,46.40
2022-06-11T10:28:00,sdl,46.21
2022-06-11T10:29:00,sdl,46.31
2022-06-11T10:30:00,sdl,48.48
2022-06-11T10:31:00,sdl,49.56
2022-06-11T10:32:00,sdl,25.04
2022-06-11T10:33:00,sdl,24.97
2022-06-11T10:34:00,sdl,25.01
2022-06-11T10:35:00,sdl,25.08
2022-06-11T10:36:00,sdl,25.07
2022-06-11T10:37:00,sdl,25.05
2022-06-11T10:38:00,sdl,24.62
2022-06-11T10:39:00,sdl,24.60
2022-06-11T10:40:00,sdl,23.34
2022-06-11T10:41:00,sdl,22.30
2022-06-11T10:42:00,sdl,22.27
2022-06-11T10:43:00,sdl,22.61
2022-06-11T10:44:00,sdl,22.82
2022-06-11T10:45:00,sdl,22.41
2022-06-11T10:46:00,sdl,22.42
2022-06-11T10:47:00,sdl,22.41
2022-06-11T10:48:00,sdl,22.45
2022-06-11T10:49:00,sdl,22.41
2022-06-11T10:50:00,sdl,22.32
2022-06-11T10:51:00,sdl,22.34
2022-06-11T10:52:00,sdl,22.31
2022-06-11T10:53:00,sdl,22.31
2022-06-11T10:54:00,sdl,21.81
2022-06-11T10:55:00,sdl,22.33
2022-06-11T10:56:00,sdl,22.32
2022-06-11T10:57:00,sdl,23.57
2022-06-11T10:58:00,sdl,22.53
2022-06-11T10:59:00,sdl,22.54
2022-06-11T11:00:00,sdl,23.35
2022-06-11T11:01:00,sdl,22.64
2022-06-11T11:02:00,sdl,22.67
2022-06-11T11:03:00,sdl,22.53
2022-06-11T11:04:00,sdl,22.48
2022-06-11T11:05:00,sdl,25.35
2022-06-11T11:06:00,sdl,24.65
2022-06-11T11:07:00,sdl,24.61
2022-06-11T11:08:00,sdl,24.59
2022-06-11T11:09:00,sdl,24.61
2022-06-11T11:10:00,sdl,24.53
2022-06-11T11:11:00,sdl,24.91
2022-06-11T11:12:00,sdl,24.93
2022-06-11T11:13:00,sdl,24.96
2022-06-11T11:14:00,sdl,24.97
2022-06-11T11:15:00,sdl,24.96
2022-06-11T11:16:00,sdl,25.00
2022-06-11T11:17:00,sdl,24.98
2022-06-11T11:18:00,sdl,25.01
2022-06-11T11:19:00,sdl,26.07
2022-06-11T11:20:00,sdl,26.38
2022-06-11T11:21:00,sdl,26.09
2022-06-11T11:22:00,sdl,26.60
2022-06-11T11:23:00,sdl,26.00
2022-06-11T11:24:00,sdl,23.80
2022-06-11T11:25:00,sdl,24.92
2022-06-11T11:26:00,sdl,24.58
2022-06-11T11:27:00,sdl,26.07
2022-06-11T11:28:00,sdl,24.97
2022-06-11T11:29:00,sdl,25.03
2022-06-11T11:30:00,sdl,24.02
2022-06-11T11:31:00,sdl,23.96
2022-06-11T11:32:00,sdl,23.92
2022-06-11T11:33:00,sdl,23.97
2022-06-11T11:34:00,sdl,24.55
2022-06-11T11:35:00,sdl,23.88
2022-06-11T11:36:00,sdl,24.91
2022-06-11T11:37:00,sdl,24.95
2022-06-11T11:38:00,sdl,24.86
2022-06-11T11:39:00,sdl,24.90
2022-06-11T11:40:00,sdl,25.28
2022-06-11T11:41:00,sdl,24.24
2022-06-11T11:42:00,sdl,23.94
2022-06-11T11:43:00,sdl,23.92
2022-06-11T11:44:00,sdl,23.90
2022-06-11T11:45:00,sdl,24.36
2022-06-11T11:46:00,sdl,23.54
2022-06-11T11:47:00,sdl,23.60
2022-06-11T11:48:00,sdl,23.61
2022-06-11T11:49:00,sdl,23.58
2022-06-11T11:50:00,sdl,23.73
2022-06-11T11:51:00,sdl,23.68
2022-06-11T11:52:00,sdl,22.87
2022-06-11T11:53:00,sdl,22.90
2022-06-11T11:54:00,sdl,22.65
2022-06-11T11:55:00,sdl,22.56
2022-06-11T11:56:00,sdl,22.54
2022-06-11T11:57:00,sdl,22.52
2022-06-11T11:58:00,sdl,22.54
2022-06-11T11:59:00,sdl,22.52
2022-06-11T12:00:00,sdl,24.84
2022-06-11T12:01:00,sdl,24.87
2022-06-11T12:02:00,sdl,23.76
2022-06-11T12:03:00,sdl,24.48
2022-06-11T12:04:00,sdl,24.49
2022-06-11T12:05:00,sdl,24.53
2022-06-11T12:06:00,sdl,24.51
2022-06-11T12:07:00,sdl,24.57
2022-06-11T12:08:00,sdl,24.50
2022-06-11T12:09:00,sdl,24.94
2022-06-11T12:10:00,sdl,24.83
2022-06-11T12:11:00,sdl,24.88
2022-06-11T12:12:00,sdl,25.59
2022-06-11T12:13:00,sdl,26.83
2022-06-11T12:14:00,sdl,25.85
2022-06-11T12:15:00,sdl,24.58
2022-06-11T12:16:00,sdl,23.83
2022-06-11T12:17:00,sdl,23.94
2022-06-11T12:18:00,sdl,32.25
2022-06-11T12:19:00,sdl,32.56
2022-06-11T12:20:00,sdl,32.69
2022-06-11T12:21:00,sdl,32.83
2022-06-11T12:22:00,sdl,33.40
2022-06-11T12:23:00,sdl,33.06
2022-06-11T12:24:00,sdl,33.20
2022-06-11T12:25:00,sdl,43.33
2022-06-11T12:26:00,sdl,43.83
2022-06-11T12:27:00,sdl,44.09
2022-06-11T12:28:00,sdl,46.67
2022-06-11T12:29:00,sdl,45.45
2022-06-11T12:30:00,sdl,45.71
2022-06-11T12:31:00,sdl,45.74
2022-06-11T12:32:00,sdl,48.18
2022-06-11T12:33:00,sdl,48.37
2022-06-11T12:34:00,sdl,49.74
2022-06-11T12:35:00,sdl,49.11
2022-06-11T12:36:00,sdl,49.14
2022-06-11T12:37:00,sdl,49.98
2022-06-11T12:38:00,sdl,50.13
2022-06-11T12:39:00,sdl,50.13
2022-06-11T12:40:00,sdl,49.70
2022-06-11T12:41:00,sdl,49.71
2022-06-11T12:42:00,sdl,49.06
2022-06-11T12:43:00,sdl,48.00
2022-06-11T12:44:00,sdl,48.48
2022-06-11T12:45:00,sdl,47.27
2022-06-11T12:46:00,sdl,23.55
2022-06-11T12:47:00,sdl,23.54
2022-06-11T12:48:00,sdl,23.24
2022-06-11T12:49:00,sdl,23.21
2022-06-11T12:50:00,sdl,23.21
2022-06-11T12:51:00,sdl,23.16
2022-06-11T12:52:00,sdl,23.22
2022-06-11T12:53:00,sdl,23.31
2022-06-11T12:54:00,sdl,23.29
2022-06-11T12:55:00,sdl,23.28
2022-06-11T12:56:00,sdl,23.28
2022-06-11T12:57:00,sdl,23.28
2022-06-11T12:58:00,sdl,23.29
2022-06-11T12:59:00,sdl,23.25
2022-06-11T13:00:00,sdl,23.21
2022-06-11T13:01:00,sdl,25.45
2022-06-11T13:02:00,sdl,25.38
2022-06-11T13:03:00,sdl,25.84
2022-06-11T13:04:00,sdl,25.82
2022-06-11T13:05:00,sdl,26.30
2022-06-11T13:06:00,sdl,26.29
2022-06-11T13:07:00,sdl,25.99
2022-06-11T13:08:00,sdl,25.94
2022-06-11T13:09:00,sdl,25.96
2022-06-11T13:10:00,sdl,25.95
2022-06-11T13:11:00,sdl,25.99
2022-06-11T13:12:00,sdl,25.97
2022-06-11T13:13:00,sdl,26.89
2022-06-11T13:14:00,sdl,25.87
2022-06-11T13:15:00,sdl,25.89
2022-06-11T13:16:00,sdl,25.98
2022-06-11T13:17:00,sdl,26.18
2022-06-11T13:18:00,sdl,26.17